www.pogodaiklimat.ru

Погода и климат >> Архив погоды >> Россия >> Якутия >> Томмот


ПОГОДА в Томмоте

  • Прогноз погоды в Томмоте
  • Монитор погоды в Томмоте

АРХИВ ПОГОДЫ в Томмоте

Время (UTC), дата Ветер
(напр.,м/с)
 
Видим.   Явления Облачность Т
(С)
Тd
(С)
f
(%)
Тe
(С)
Тes
(С)
Комфортность P
(гПа)
Po
(гПа)
Тmin
(С)
Tmax
(С)
R
(мм)
R24
(мм)
S
(см)
03 13.08 Ю 2 50 км 10/0 2000 м
[Ac As Ci fib]
+20.1 +10.8 55 +22 +26 комфорт 1005.8 973.4
06 13.08 В 1 50 км 10/10 1000 м
[Sc]
+21.4 +9.8 48 +23 +23 комфорт 1004.6 972.3
09 13.08 ЮВ 1 50 км 10/0 2000 м
[Ac As]
+22.0 +10.3 47 +24 +24 комфорт 1004.6 972.3
12 13.08 ЮВ 1 20 км 10/5 600 м
[Cb cap Ac und]
+19.9 +9.9 52 +22 +22 комфорт 1004.8 972.3 +23.0
15 13.08 штиль 0 20 км 10/5 600 м
[Cb cap Ac und]
+13.9 +10.5 80 +14 +14 1005.2 972.0
18 13.08 штиль 0 20 км 10/5 600 м
[Cb cap Ac und]
+12.3 +10.0 86 +12 +12 1004.5 971.3
21 13.08 Ю 1 20 км слаб. ливневой дождь 10/6 600 м
[Cb cap Ac As Ci sp]
+12.1 +10.4 89 +12 +12 1004.0 970.8
00 14.08 штиль 0 20 км слаб. ливневой дождь 10/10 600 м
[Cb cap]
+14.1 +12.8 92 +14 +14 1003.9 970.9 +11.3 0.6
03 14.08 штиль 0 4000 м слаб. ливневой дождь 10/10 600 м
[Cb cap]
+14.7 +13.4 92 +14 +14 1004.2 971.2
06 14.08 С 1 4000 м слаб. ливневой дождь 10/10 600 м
[Cb cap]
+15.1 +14.6 97 +16 +16 1004.7 971.7
09 14.08 штиль 0 4000 м слаб. ливневой дождь 10/10 600 м
[Cb cap]
+14.9 +14.5 97 +15 +15 1005.1 972.1
12 14.08 штиль 0 20 км слаб. ливневой дождь 10/10 600 м
[Cb cap]
+14.8 +14.6 99 +14 +14 1005.6 972.6 +15.4 27
15 14.08 В 1 4000 м дымка {ливн. осадки} 10/10 600 м
[Cb cap]
+13.8 +15.8 100 +14 +14 1005.8 972.6
18 14.08 ЮВ 1 1000 м 10/10 600 м
[Cb cap]
+12.5 +12.3 99 +12 +12 1005.9 972.6
21 14.08 ЮВ 1 500 м туман ?/? +12.2 +12.2 100 +12 +12 1006.2 972.9
00 15.08 Ю 1 2000 м дымка {туман} 10/10 600 м
[Cb cap]
+14.0 +13.6 97 +14 +14 1006.6 973.5 +11.3 0.0
03 15.08 СЗ 1 50 км 10/10 600 м
[Cb cap]
+17.3 +14.3 83 +18 +18 1006.7 974.0
06 15.08 З 1 50 км {ливн. осадки} 10/10 600 м
[Cb cap]
+18.3 +13.0 71 +20 +20 1006.9 974.3
09 15.08 ЮЗ 1 50 км 10/8 600 м
[Cb cap Ci fib]
+20.0 +13.6 67 +23 +23 комфорт 1007.2 974.7
12 15.08 штиль 0 20 км 10/10 600 м
[Cb cap]
+15.6 +14.6 94 +15 +15 1008.0 974.9 +20.5 0.0
15 15.08 штиль 0 20 км 10/10 600 м
[Cb cap]
+13.1 +12.7 97 +13 +13 1008.9 975.6
18 15.08 штиль 0 500 м туман ?/? +9.8 +9.4 97 +9 +9 1009.9 976.1
21 15.08 Ю 1 500 м туман ?/? +9.8 +9.6 99 +9 +9 1010.9 977.1
00 16.08 ЮЗ 1 4000 м дымка {туман} 6/6 300 м
[St]
+11.6 +11.2 97 +11 +14 1011.3 977.7 +9.0
03 16.08 ЮЗ 1 50 км 3/3 600 м
[Cu med, cong]
+20.7 +11.5 56 +24 +32 комфорт 1009.4 976.9
06 16.08 ЮВ 2 50 км 6/6 600 м
[Cu med, cong]
+24.2 +11.0 43 +25 +29 комфорт 1008.3 976.2
09 16.08 ЮВ 2 50 км 8/3 600 м
[Cu med, cong Ac trans]
+23.9 +11.3 45 +25 +26 комфорт 1008.2 976.0
12 16.08 штиль 0 20 км 4/3 1000 м
[Sc diur, vesp Ci fib]
+15.1 +13.5 90 +15 +15 1009.7 976.6 +25.1
15 16.08 Ю 1 20 км ясно +8.6 +7.8 95 +8 +8 1011.3 977.4
18 16.08 В 1 20 км 6/1 1000 м
[Sc Ci fib]
+7.9 +7.0 94 +7 +7 1011.3 977.3
21 16.08 СВ 1 50 км 10/6 1000 м
[Sc Ci fib]
+6.9 +6.2 95 +6 +6 1012.1 977.8
00 17.08 штиль 0 50 км 3/0
[Ci fib]
+13.5 +10.2 80 +13 +20 1009.6 976.3 +6.5
03 17.08 С 2 50 км 6/6 600 м
[Cb cap]
+20.2 +14.9 72 +23 +27 комфорт 1007.6 975.1
06 17.08 В 3 50 км 10/4 600 м
[Cb cap Cs]
+21.9 +9.5 45 +23 +26 комфорт 1006.5 974.2
09 17.08 ЮВ 6-14
{14}
50 км 10/10 600 м
[Cb cap]
+19.7 +8.9 50 +20 +20 1007.1 974.5
12 17.08 В 1
{14}
20 км слаб. ливневой дождь 10/10 600 м
[Cb cap]
+11.9 +10.7 92 +12 +12 1009.2 975.7 +22.6 0.9
15 17.08 СВ 1 20 км {ливн. осадки} 10/6 600 м
[Cb cap Ci sp]
+10.5 +9.3 92 +10 +10 1008.9 975.2
18 17.08 ЮВ 1 20 км {ливн. осадки} 10/10 600 м
[Cb cap]
+10.1 +8.7 91 +10 +10 1007.6 973.9
21 17.08 ЮВ 4 50 км 10/4 600 м
[Cb cap Ac As Ci sp]
+9.7 +6.9 83 +7 +7 1007.1 973.4
00 18.08 ЮВ 4
{11}
50 км 10/10 600 м
[Cb cap]
+10.3 +7.4 82 +8 +8 1006.9 973.2 +9.3 2
03 18.08 ЮВ 3
{11}
20 км слаб. ливневой дождь 10/10 600 м
[Cb cap]
+11.7 +9.1 84 +10 +10 1006.3 972.9
06 18.08 В 3 50 км {ливн. осадки} 10/10 600 м
[Cb cap]
+16.0 +10.6 70 +16 +16 1005.4 972.4
09 18.08 С 2 20 км слаб. ливневой дождь 10/10 600 м
[Cb cap]
+14.6 +13.3 92 +14 +14 1006.2 973.1
12 18.08 ЮВ 1 20 км 10/10 600 м
[Cb cap]
+13.4 +13.0 97 +13 +13 1007.1 973.9 +17.8 2
15 18.08 Ю 1 20 км 10/10 600 м
[Cb cap]
+12.2 +12.2 100 +12 +12 1008.7 975.3
18 18.08 Ю 1 20 км 6/0
[Ci sp]
+8.8 +8.6 99 +8 +8 1010.4 976.5
21 18.08 Ю 1 500 м туман ?/? +7.6 +7.4 99 +7 +7 1012.2 978.1
00 19.08 штиль 0 500 м туман ?/? +8.7 +8.5 99 +8 +8 1013.7 979.7 +7.4 0.5
03 19.08 СЗ 1 50 км {туман} 10/3 600 м
[Cu med, cong Ci sp]
+16.4 +10.4 68 +17 +24 1012.5 979.4
06 19.08 З 1 50 км {туман} 10/1 600 м
[Cu med, cong Ci sp]
+20.3 +10.4 53 +23 +29 комфорт 1011.1 978.5
09 19.08 С 1 50 км 10/0
[Cs]
+20.3 +10.6 54 +23 +24 комфорт 1010.9 978.3
12 19.08 штиль 0 20 км 10/0 2000 м
[Ac As]
+14.9 +13.5 91 +15 +15 1011.7 978.5 +21.2
15 19.08 Ю 1 20 км 10/3 600 м
[Cb cap Ac As]
+12.1 +11.1 94 +12 +12 1012.2 978.7
18 19.08 штиль 0 20 км 10/10 600 м
[Cb cap]
+11.1 +10.5 96 +10 +10 1012.4 978.8
21 19.08 штиль 0 20 км слаб. ливневой дождь 10/10 600 м
[Cb cap]
+10.4 +10.0 97 +10 +10 1012.9 979.1
00 20.08 СЗ 1 50 км {ливн. осадки} 8/3 600 м
[Cu hum Ac As]
+14.9 +11.6 81 +15 +17 1012.6 979.3 +10.3 0.1

 

Местоположение метеостанции Томмот (Якутия, Россия): широта 58.97 долгота 126.20 высота над уровнем моря 284 м.

В архиве по умолчанию представлена погода в Томмоте за последнюю неделю. Архивные данные за месяц целиком и за предыдущие месяцы, начиная с января 2011 года, Вы можете получить, выбрав интересующий диапазон дат из раскрывающегося списка и нажав кнопку "Ввод!".


*Определитесь, кто Вы:
робот инопланетянин человек

Внимание! Время в таблицах - всемирное. Для получения местного времени необходимо прибавить поправку, которая равна 9 ч.

Смотрите также архив погоды в соседних городах и на ближайших метеорологических станциях:

Погода в Алдане (Якутия, Россия) (66 км)
Погода в Буяге (Якутия, Россия) (90 км)
Погода в Угино (Якутия, Россия) (138 км)
Погода в Канкунском (Якутия, Россия) (148 км)
Погода в Суон-Тите (Якутия, Россия) (176 км)
Погода в Исити (Якутия, Россия) (212 км)
Погода в Нерюнгри (Якутия, Россия) (251 км)
Погода в Учуре (Якутия, Россия) (255 км)
Погода в Джикимде (Якутия, Россия) (258 км)
Погода в Тегюльте (Якутия, Россия) (271 км)

Пояснения к столбцам:

Ветер - указаны скорость ветра в м/с - средняя за 10 мин, порывы в срок и между сроками (в фигурных скобках) и направление, откуда дует ветер: С - северный, СВ - северо-восточный, В - восточный, ЮВ - юго-восточный, Ю - южный, ЮЗ - юго-западный, З - западный, СЗ - северо-западный.
Видимость - горизонтальная дальность видимости в метрах или километрах. При видимости от 1 до 10 км при отсутствии осадков обычно наблюдается дымка, при ухудшении видимости до 1 км и менее - туман. В сухую погоду видимость может ухудшаться дымом, пылью или мглою.
Явления - указаны атмосферные явления, наблюдавшиеся в срок или в последний час перед сроком; фигурными скобками обозначены явления, наблюдавшиеся между сроками (за 1-3 часа до срока); квадратными скобками обозначены град или гололедные отложения с указанием их диаметра в мм.
Облачность - указаны через наклонную черту общая и нижняя облачность в баллах и высота нижней границы облаков в метрах; квадратными скобками обозначены формы облаков: Ci - перистые, Cs - перисто-слоистые, Cc - перисто-кучевые, Ac - высококучевые, As - высокослоистые, Sc - слоисто-кучевые, Ns - слоисто-дождевые, Cu - кучевые, Cb - кучево-дождевые. Подробнее классификацию облаков см. в Атласе облаков (PDF).
T - Температура воздуха - температура, измеренная на высоте 2 м над землей.
Td - Температура точки росы - температура, при понижении до которой содержащийся в воздухе водяной пар достигнет насыщения.
f - Относительная влажность воздуха - влажноcть воздуха, измеренная на высоте 2 м над землей.
Te - Эффективная температура - температура, которую ощущает одетый по сезону человек в тени. Характеристика душности погоды. При расчете учитывается влияние влажности воздуха и скорости ветра на теплоощущения человека.
Tes - Эффективная температура на солнце - температура, которую ощущает человек, с поправкой на солнечный нагрев. Характеристика знойности погоды. Зависит от высоты солнца над горизонтом, облачности и скорости ветра. Ночью, в пасмурную погоду, а также при ветре 12 м/с и более поправка равна нулю.
P - Атмосферное давление - приведенное к уровню моря атмосферное давление.
Po - Атмосферное давление - измеренное на уровне метеостанции атмосферное давление.
Tmin - Минимальная температура - минимум температуры воздуха на высоте 2 м над землей.
Tmax - Максимальная температура - максимум температуры воздуха на высоте 2 м над землей.
R - Количество осадков - Количество выпавших осадков за период времени, мм. При наведении курсора мыши на число - период времени, за который выпало указанное количество осадков.
R24 - Количество осадков - Количество выпавших осадков за 24 часа, мм.
S - Снежный покров - Высота снежного покрова, см. При наведении курсора мыши на число - состояние снежного покрова и степень покрытия местности в баллах.